Погода в Заводовке

Украина / Одесская область     47°13′35″N   30°48′44″E
темп.,
°C
ветер,
м/с
пор.,
м/с
влажн.,
%
обл.,
%
осадки,
мм/ч
давл.,
гПа
погр.,
м
2 марта, вт
вт223:00+1ссз368398 0.1 1032268
02:00+1ссз368296 0.1 1033254
05:00−1зсз238482 0.0 103150
08:00+1з358390 0.0 1031232
11:00+5з566524 0.0 1029848
14:00+8з796119 0.0 1027804
17:00+7з6116681 0.0 1024761
20:00+5зсз5137848 0.0 1024359
3 марта, ср
ср323:00+4ссз5138179 0.0 1024760
02:00+4ссз6117988 0.0 1026859
05:00+2сз5117593 0.0 1027324
08:00+3ссз5117947 0.0 1029486
11:00+6ссз57590 0.0 1029949
14:00+8ссз45450 0.0 10291258
17:00+7сз245240 0.0 1028170
20:00+4з126469 0.0 102822
4 марта, чт
чт423:00+3зюз236720 0.0 102722
02:00+2юз347010 0.0 102639
05:00+1ююз34730 0.0 102384
08:00+3ююз58770 0.0 1022278
11:00+9юз69650 0.0 1019545
14:00+12юз79530 0.0 1016901
17:00+11юз486288 0.0 1014226
20:00+7юз347346 0.0 101447
5 марта, пт
пт523:00+6з23713 0.0 101322
02:00+5юз23692 0.0 101322
05:00+5ююз127293 0.0 101222
08:00+5ю348096 0.0 1012108
11:00+11ююз455890 0.0 1011431
14:00+14зсз454466 0.0 1010978
17:00+12ссз485523 0.0 1010331
20:00+7ссв598056 0.0 1011284
6 марта, сб
сб623:00+6с4790100 0.0 1013349
02:00+4с6992100 0.4 1015429
05:00+1ссв81290100 0.4 1016607
08:00+1ссв71066100 0.5 1019942
11:00+3с81048100 0.0 10211309
14:00+3с7942100 0.0 10221491
17:00+2с694073 0.0 10231976
20:000сз355337 0.0 1026135